When you browse on this site, cookies collect data to enhance your experience and personalize the content and advertising you see.
Visit our Privacy Policy to learn more. By continuing to use the site, you agree to this use of cookies and data.
  • In Deutschland
  • Länderverzeichnis
  • Für 7 Tage
  • Wassertemperatur
  • Satellitenkarten
  • Wetterkarte
  • Widgets
  • user-avatar
    Anmelden

    Stündliche Wetter São Paulo

    Heute, 22 Januar, Dienstag

    Zeit Temperatur Niederschläge Wind Luftdruck Luftfeuchtigkeit
    00:00 +28°C° 0.1 mm 1 m/S 700 mmHg 69%
    01:00 +27°C° 0 mm 1 m/S 700 mmHg 70%
    02:00 +27°C° 0 mm 1 m/S 700 mmHg 71%
    03:00 +25°C° 0 mm 0 m/S 699 mmHg 73%
    04:00 +25°C° 0 mm 0 m/S 699 mmHg 73%
    05:00 +24°C° 0 mm 0 m/S 699 mmHg 74%
    06:00 +24°C° 0 mm 0 m/S 699 mmHg 75%
    07:00 +28°C° 0.4 mm 1 m/S 700 mmHg 69%
    08:00 +29°C° 0.4 mm 1 m/S 701 mmHg 64%
    09:00 +31°C° 0.4 mm 1 m/S 701 mmHg 58%
    10:00 +32°C° 0.4 mm 1 m/S 701 mmHg 56%
    11:00 +32°C° 0.4 mm 2 m/S 701 mmHg 53%
    12:00 +34°C° 0.4 mm 3 m/S 701 mmHg 51%
    13:00 +34°C° 1.1 mm 3 m/S 701 mmHg 54%
    14:00 +33°C° 1.1 mm 3 m/S 700 mmHg 57%
    15:00 +31°C° 1.1 mm 3 m/S 700 mmHg 60%
    16:00 +30°C° 0.6 mm 3 m/S 700 mmHg 63%
    17:00 +29°C° 0.6 mm 3 m/S 700 mmHg 67%
    18:00 +28°C° 0.6 mm 3 m/S 699 mmHg 70%
    19:00 +28°C° 0.3 mm 3 m/S 700 mmHg 72%
    20:00 +27°C° 0.3 mm 3 m/S 700 mmHg 75%
    21:00 +26°C° 0.3 mm 3 m/S 700 mmHg 77%
    22:00 +26°C° 0 mm 2 m/S 700 mmHg 77%
    23:00 +25°C° 0 mm 2 m/S 700 mmHg 78%

    Morgen, 23 Januar, Mittwoch

    Zeit Temperatur Niederschläge Wind Luftdruck Luftfeuchtigkeit
    00:00 +25°C° 0 mm 2 m/S 700 mmHg 78%
    01:00 +25°C° 0 mm 2 m/S 700 mmHg 79%
    02:00 +25°C° 0 mm 2 m/S 699 mmHg 80%
    03:00 +25°C° 0 mm 2 m/S 699 mmHg 80%
    04:00 +24°C° 0 mm 1 m/S 699 mmHg 81%
    05:00 +24°C° 0 mm 1 m/S 699 mmHg 82%
    06:00 +24°C° 0 mm 1 m/S 699 mmHg 82%
    07:00 +26°C° 0 mm 1 m/S 700 mmHg 75%
    08:00 +27°C° 0 mm 2 m/S 701 mmHg 68%
    09:00 +29°C° 0 mm 2 m/S 701 mmHg 60%
    10:00 +31°C° 0.1 mm 1 m/S 701 mmHg 55%
    11:00 +32°C° 0.1 mm 1 m/S 701 mmHg 51%
    12:00 +34°C° 0.1 mm 1 m/S 701 mmHg 46%
    13:00 +33°C° 0.8 mm 1 m/S 701 mmHg 49%
    14:00 +34°C° 0.8 mm 2 m/S 700 mmHg 52%
    15:00 +32°C° 0.8 mm 2 m/S 700 mmHg 56%
    16:00 +31°C° 1.3 mm 2 m/S 699 mmHg 60%
    17:00 +30°C° 1.3 mm 2 m/S 699 mmHg 64%
    18:00 +29°C° 1.3 mm 2 m/S 699 mmHg 68%
    19:00 +28°C° 1.2 mm 2 m/S 699 mmHg 72%
    20:00 +27°C° 1.2 mm 2 m/S 700 mmHg 76%
    21:00 +26°C° 1.2 mm 2 m/S 700 mmHg 79%
    22:00 +26°C° 0.2 mm 2 m/S 700 mmHg 80%
    23:00 +26°C° 0.2 mm 2 m/S 700 mmHg 80%

    übermorgen, 24 Januar, Donnerstag

    Zeit Temperatur Niederschläge Wind Luftdruck Luftfeuchtigkeit
    00:00 +25°C° 0.2 mm 2 m/S 700 mmHg 81%
    01:00 +25°C° 0 mm 1 m/S 699 mmHg 81%
    02:00 +25°C° 0 mm 1 m/S 698 mmHg 81%
    03:00 +25°C° 0 mm 1 m/S 698 mmHg 81%
    04:00 +25°C° 0 mm 1 m/S 698 mmHg 81%
    05:00 +24°C° 0 mm 1 m/S 698 mmHg 81%
    06:00 +24°C° 0 mm 1 m/S 699 mmHg 82%
    07:00 +26°C° 0 mm 1 m/S 699 mmHg 75%
    08:00 +27°C° 0 mm 1 m/S 700 mmHg 68%
    09:00 +29°C° 0 mm 1 m/S 701 mmHg 61%
    10:00 +30°C° 0.3 mm 1 m/S 701 mmHg 56%
    11:00 +32°C° 0.3 mm 1 m/S 701 mmHg 51%
    12:00 +34°C° 0.3 mm 2 m/S 701 mmHg 47%
    13:00 +32°C° 1.8 mm 2 m/S 700 mmHg 52%
    14:00 +31°C° 1.8 mm 3 m/S 700 mmHg 57%
    15:00 +30°C° 1.8 mm 3 m/S 699 mmHg 62%
    16:00 +29°C° 2.5 mm 3 m/S 699 mmHg 66%
    17:00 +28°C° 2.5 mm 3 m/S 699 mmHg 70%
    18:00 +27°C° 2.5 mm 3 m/S 699 mmHg 73%
    19:00 +27°C° 1.9 mm 3 m/S 699 mmHg 76%
    20:00 +26°C° 1.9 mm 3 m/S 700 mmHg 79%
    21:00 +25°C° 1.9 mm 3 m/S 700 mmHg 82%
    22:00 +25°C° 0.4 mm 2 m/S 700 mmHg 83%
    23:00 +24°C° 0.4 mm 2 m/S 700 mmHg 84%

    25 Januar, Freitag

    Zeit Temperatur Niederschläge Wind Luftdruck Luftfeuchtigkeit
    00:00 +24°C° 0.4 mm 2 m/S 700 mmHg 85%
    01:00 +24°C° 0.1 mm 2 m/S 699 mmHg 86%
    02:00 +24°C° 0.1 mm 2 m/S 699 mmHg 86%
    03:00 +23°C° 0.1 mm 2 m/S 698 mmHg 86%
    04:00 +23°C° 0.1 mm 2 m/S 698 mmHg 87%
    05:00 +23°C° 0.1 mm 2 m/S 698 mmHg 87%
    06:00 +23°C° 0.1 mm 2 m/S 698 mmHg 88%
    07:00 +24°C° 0.1 mm 2 m/S 699 mmHg 82%
    08:00 +25°C° 0.1 mm 2 m/S 699 mmHg 76%
    09:00 +27°C° 0.1 mm 3 m/S 700 mmHg 70%
    10:00 +28°C° 0.7 mm 3 m/S 700 mmHg 66%
    11:00 +29°C° 0.7 mm 3 m/S 700 mmHg 62%
    12:00 +30°C° 0.7 mm 3 m/S 700 mmHg 57%
    13:00 +30°C° 1.1 mm 3 m/S 700 mmHg 56%
    14:00 +30°C° 1.1 mm 3 m/S 699 mmHg 55%
    15:00 +31°C° 1.1 mm 3 m/S 699 mmHg 54%
    16:00 +29°C° 1.2 mm 3 m/S 699 mmHg 58%
    17:00 +28°C° 1.2 mm 3 m/S 699 mmHg 62%
    18:00 +27°C° 1.2 mm 3 m/S 699 mmHg 66%
    19:00 +26°C° 0.7 mm 2 m/S 699 mmHg 68%
    20:00 +25°C° 0.7 mm 1 m/S 700 mmHg 70%
    21:00 +23°C° 0.7 mm 0 m/S 700 mmHg 71%
    22:00 +24°C° 0.1 mm 1 m/S 700 mmHg 71%
    23:00 +24°C° 0.1 mm 1 m/S 700 mmHg 72%

    26 Januar, Samstag

    Zeit Temperatur Niederschläge Wind Luftdruck Luftfeuchtigkeit
    00:00 +23°C° 0.1 mm 1 m/S 700 mmHg 72%
    01:00 +23°C° 0 mm 1 m/S 699 mmHg 71%
    02:00 +23°C° 0 mm 1 m/S 699 mmHg 70%
    03:00 +22°C° 0 mm 1 m/S 698 mmHg 69%
    04:00 +21°C° 0 mm 2 m/S 698 mmHg 67%
    05:00 +20°C° 0 mm 2 m/S 698 mmHg 65%
    06:00 +20°C° 0 mm 2 m/S 699 mmHg 63%
    07:00 +23°C° 0 mm 2 m/S 699 mmHg 56%
    08:00 +25°C° 0 mm 2 m/S 700 mmHg 49%
    09:00 +27°C° 0 mm 3 m/S 701 mmHg 42%
    10:00 +29°C° 0 mm 2 m/S 701 mmHg 39%
    11:00 +31°C° 0 mm 2 m/S 701 mmHg 36%
    12:00 +32°C° 0 mm 2 m/S 702 mmHg 33%
    13:00 +32°C° 0 mm 2 m/S 701 mmHg 36%
    14:00 +31°C° 0 mm 2 m/S 701 mmHg 40%
    15:00 +30°C° 0 mm 2 m/S 700 mmHg 44%
    16:00 +30°C° 0.5 mm 2 m/S 700 mmHg 49%
    17:00 +29°C° 0.5 mm 2 m/S 700 mmHg 54%
    18:00 +28°C° 0.5 mm 2 m/S 700 mmHg 59%
    19:00 +27°C° 0.1 mm 2 m/S 700 mmHg 62%
    20:00 +26°C° 0.1 mm 2 m/S 700 mmHg 66%
    21:00 +25°C° 0.1 mm 2 m/S 701 mmHg 69%
    22:00 +25°C° 0 mm 2 m/S 701 mmHg 68%
    23:00 +24°C° 0 mm 2 m/S 701 mmHg 66%

    27 Januar, Sonntag

    Zeit Temperatur Niederschläge Wind Luftdruck Luftfeuchtigkeit
    00:00 +24°C° 0 mm 3 m/S 701 mmHg 64%
    01:00 +24°C° 0 mm 2 m/S 700 mmHg 65%
    02:00 +23°C° 0 mm 2 m/S 700 mmHg 66%
    03:00 +23°C° 0 mm 2 m/S 700 mmHg 67%
    04:00 +23°C° 0 mm 2 m/S 700 mmHg 69%
    05:00 +21°C° 0 mm 2 m/S 700 mmHg 70%
    06:00 +21°C° 0 mm 2 m/S 700 mmHg 71%
    07:00 +24°C° 0 mm 2 m/S 700 mmHg 65%
    08:00 +26°C° 0 mm 2 m/S 701 mmHg 59%
    09:00 +28°C° 0 mm 2 m/S 702 mmHg 53%
    10:00 +29°C° 0.1 mm 2 m/S 702 mmHg 48%
    11:00 +31°C° 0.1 mm 3 m/S 702 mmHg 44%
    12:00 +33°C° 0.1 mm 3 m/S 702 mmHg 40%
    13:00 +34°C° 0.1 mm 2 m/S 702 mmHg 39%
    14:00 +34°C° 0.1 mm 2 m/S 701 mmHg 38%
    15:00 +33°C° 0.1 mm 1 m/S 701 mmHg 38%
    16:00 +32°C° 0 mm 2 m/S 701 mmHg 43%
    17:00 +31°C° 0 mm 2 m/S 700 mmHg 49%
    18:00 +30°C° 0 mm 2 m/S 700 mmHg 55%
    19:00 +29°C° 0.2 mm 2 m/S 700 mmHg 60%
    20:00 +27°C° 0.2 mm 2 m/S 701 mmHg 65%
    21:00 +26°C° 0.2 mm 2 m/S 701 mmHg 70%
    22:00 +26°C° 0.1 mm 1 m/S 701 mmHg 72%
    23:00 +26°C° 0.1 mm 1 m/S 701 mmHg 73%
    Mehr zeigen